Simultaneous Nadir Overpasses (SNOs) Predictions

Prediction of SNOs between METOP-A and NOAA-19 Satellite Orbit:

Table of predicted SNOs for the next 14.0 days since TLE Epoch: 10/21/2016
Index Date (METOP-A) Time (METOP-A) Lat,Lon (METOP-A) SZA (METOP-A ) Date (NOAA-19) Time (NOAA-19) Lat,Lon (NOAA-19) SZA (NOAA-19 ) Distance(km) Time Diff (sec)
1 10/26/2016 12:08:53 -77.04,-178.39 90.23 10/26/2016 12:07:48 -77.01, 177.80 90.36 95.27 65
2 10/26/2016 12:59:45 76.52, -13.10 89.21 10/26/2016 12:58:43 76.55, -13.05 89.24 3.34 62
3 10/26/2016 13:50:26 -76.54, 154.29 90.76 10/26/2016 13:49:39 -76.54, 154.24 90.76 1.30 47
4 10/26/2016 14:41:07 76.50, -38.51 89.22 10/26/2016 14:40:44 76.51, -38.40 89.22 3.09 23
5 10/26/2016 15:31:48 -76.52, 128.88 90.76 10/26/2016 15:31:40 -76.51, 128.89 90.77 1.65 8
6 10/26/2016 16:22:29 76.48, -63.92 89.22 10/26/2016 16:22:46 76.52, -63.92 89.25 3.43 17
7 10/26/2016 17:13:10 -76.50, 103.47 90.76 10/26/2016 17:13:42 -76.51, 103.36 90.74 3.01 32
8 10/26/2016 18:03:51 76.47, -89.33 89.22 10/26/2016 18:04:47 76.48, -89.28 89.24 1.91 56
9 10/26/2016 18:54:32 -76.48, 78.06 90.75 10/26/2016 18:55:43 -76.47, 78.01 90.76 1.83 71




NCC Satellite Simultaneous Nadir Overpasses (SNOs) Prediction Service
